| time (UTC) | temp F | wind direction | speed MPH | gust MPH | rain 1hr in | rain 24hr in | rain mn in | humidity % | barometer mb |
| 20260503202557 | 70 | 203 | 3.0 | 4.0 | 0.00 | 0.00 | 0.00 | 37 | 1014.0 |
| 20260503201017 | 71 | 180 | 3.0 | 5.0 | 0.00 | 0.00 | 0.00 | 40 | 1014.2 |
| 20260503195517 | 76 | 113 | 2.0 | 6.0 | 0.00 | 0.00 | 0.00 | 30 | 1014.7 |
| 20260503194017 | 74 | 45 | 3.0 | 9.0 | 0.00 | 0.00 | 0.00 | 31 | 1015.0 |
| 20260503192517 | 73 | 90 | 3.0 | 8.0 | 0.00 | 0.00 | 0.00 | 33 | 1015.3 |
| 20260503191017 | 72 | 68 | 2.0 | 7.0 | 0.00 | 0.00 | 0.00 | 35 | 1015.7 |
| 20260503185517 | 71 | 90 | 3.0 | 6.0 | 0.00 | 0.00 | 0.00 | 34 | 1015.9 |
| 20260503184017 | 71 | 23 | 3.0 | 6.0 | 0.00 | 0.00 | 0.00 | 35 | 1016.0 |
| 20260503182537 | 70 | 90 | 3.0 | 6.0 | 0.00 | 0.00 | 0.00 | 35 | 1016.2 |
| 20260503181017 | 67 | 180 | 2.0 | 5.0 | 0.00 | 0.00 | 0.00 | 39 | 1016.2 |
| 20260503175517 | 66 | 158 | 2.0 | 4.0 | 0.00 | 0.00 | 0.00 | 42 | 1016.4 |
| 20260503174016 | 65 | 180 | 3.0 | 5.0 | 0.00 | 0.00 | 0.00 | 43 | 1016.6 |
| 20260503172516 | 65 | 68 | 2.0 | 3.0 | 0.00 | 0.00 | 0.00 | 43 | 1016.9 |
| 20260503171017 | 64 | 45 | 3.0 | 8.0 | 0.00 | 0.00 | 0.00 | 44 | 1017.4 |
| 20260503131016 | 49 | 0.0 | 0.0 | 0.00 | 0.00 | 0.00 | 62 | 1017.8 | |
| 20260503081016 | 55 | 0.0 | 1.0 | 0.00 | 0.00 | 0.00 | 53 | 1017.5 | |
| 20260503072515 | 57 | 0.0 | 0.0 | 0.00 | 0.00 | 0.00 | 49 | 1017.3 | |
| 20260503071016 | 58 | 0.0 | 1.0 | 0.00 | 0.00 | 0.00 | 48 | 1017.0 | |
| 20260503054016 | 60 | 0.0 | 1.0 | 0.00 | 0.00 | 0.00 | 47 | 1016.2 | |
| 20260503052536 | 60 | 0 | 1.0 | 2.0 | 0.00 | 0.00 | 0.00 | 47 | 1016.1 |
| 20260503051017 | 61 | 0.0 | 1.0 | 0.00 | 0.00 | 0.00 | 48 | 1016.0 | |
| 20260503045516 | 62 | 0.0 | 2.0 | 0.00 | 0.00 | 0.00 | 43 | 1015.7 | |
| 20260503044016 | 63 | 0.0 | 0.0 | 0.00 | 0.00 | 0.00 | 42 | 1015.7 | |
| 20260503042516 | 63 | 0.0 | 0.0 | 0.00 | 0.00 | 0.00 | 42 | 1015.6 | |
| 20260503041016 | 64 | 0.0 | 1.0 | 0.00 | 0.00 | 0.00 | 42 | 1015.4 | |
| 20260503035516 | 65 | 135 | 1.0 | 3.0 | 0.00 | 0.00 | 0.00 | 42 | 1015.4 |
| 20260503034036 | 66 | 0.0 | 1.0 | 0.00 | 0.00 | 0.00 | 39 | 1015.2 | |
| 20260503032516 | 67 | 0.0 | 2.0 | 0.00 | 0.00 | 0.00 | 39 | 1015.0 | |
| 20260503031016 | 68 | 0.0 | 0.0 | 0.00 | 0.00 | 0.00 | 40 | 1014.8 | |
| 20260503025516 | 69 | 0.0 | 0.0 | 0.00 | 0.00 | 0.00 | 37 | 1014.9 | |
| 20260503024016 | 70 | 0.0 | 0.0 | 0.00 | 0.00 | 0.00 | 37 | 1014.9 | |
| 20260503022516 | 70 | 0.0 | 0.0 | 0.00 | 0.00 | 0.00 | 36 | 1014.9 | |
| 20260503021016 | 71 | 0.0 | 0.0 | 0.00 | 0.00 | 0.00 | 36 | 1014.7 | |
| 20260503015516 | 73 | 135 | 1.0 | 3.0 | 0.00 | 0.00 | 0.00 | 34 | 1014.9 |
| 20260503014016 | 74 | 90 | 1.0 | 2.0 | 0.00 | 0.00 | 0.00 | 32 | 1014.9 |
| 20260503012516 | 76 | 90 | 1.0 | 2.0 | 0.00 | 0.00 | 0.00 | 29 | 1015.0 |
| 20260503011016 | 77 | 90 | 1.0 | 3.0 | 0.00 | 0.00 | 0.00 | 28 | 1015.2 |
| 20260503005516 | 77 | 68 | 2.0 | 5.0 | 0.00 | 0.00 | 0.00 | 27 | 1015.1 |
| 20260503004015 | 77 | 45 | 3.0 | 7.0 | 0.00 | 0.00 | 0.00 | 27 | 1015.3 |
| 20260503002515 | 76 | 45 | 1.0 | 4.0 | 0.00 | 0.00 | 0.00 | 29 | 1015.4 |
| 20260503001015 | 77 | 135 | 1.0 | 3.0 | 0.00 | 0.00 | 0.00 | 29 | 1015.5 |
| 20260502235515 | 77 | 203 | 2.0 | 3.0 | 0.00 | 0.00 | 0.00 | 30 | 1015.6 |
| 20260502234036 | 74 | 203 | 2.0 | 4.0 | 0.00 | 0.00 | 0.00 | 36 | 1015.6 |
| 20260502232515 | 80 | 68 | 3.0 | 6.0 | 0.00 | 0.00 | 0.00 | 24 | 1015.9 |
| 20260502231016 | 81 | 45 | 2.0 | 6.0 | 0.00 | 0.00 | 0.00 | 23 | 1016.3 |
| 20260502225516 | 78 | 158 | 2.0 | 5.0 | 0.00 | 0.00 | 0.00 | 31 | 1016.6 |
| 20260502224055 | 76 | 158 | 2.0 | 5.0 | 0.00 | 0.00 | 0.00 | 31 | 1016.7 |
| 20260502222535 | 76 | 135 | 3.0 | 5.0 | 0.00 | 0.00 | 0.00 | 31 | 1017.0 |
| 20260502221016 | 75 | 158 | 2.0 | 4.0 | 0.00 | 0.00 | 0.00 | 33 | 1017.1 |
| 20260502215516 | 75 | 158 | 3.0 | 5.0 | 0.00 | 0.00 | 0.00 | 35 | 1017.4 |
| 20260502214016 | 74 | 180 | 2.0 | 6.0 | 0.00 | 0.00 | 0.00 | 33 | 1017.4 |
| 20260502212515 | 75 | 158 | 2.0 | 4.0 | 0.00 | 0.00 | 0.00 | 31 | 1017.7 |
| 20260502211015 | 75 | 180 | 3.0 | 7.0 | 0.00 | 0.00 | 0.00 | 33 | 1017.8 |
| 20260502205535 | 74 | 158 | 3.0 | 6.0 | 0.00 | 0.00 | 0.00 | 33 | 1018.2 |
| 20260502204015 | 75 | 45 | 4.0 | 7.0 | 0.00 | 0.00 | 0.00 | 31 | 1018.6 |